Time,TemperatureF,DewpointF,PressureIn,WindDirection,WindDirectionDegrees,WindSpeedMPH,WindSpeedGustMPH,Humidity,HourlyPrecipIn,Conditions,Clouds,dailyrainin,SoftwareType,DateUTC
2013-05-15 00:00:00,52.7,47.4,29.87,SE,135,2.7,2.7,82,0.00,,,0.00,WUHU216HW,2013-05-15 07:00:00,
2013-05-15 00:05:00,52.7,47.4,29.87,SSE,158,3.4,4.5,82,0.00,,,0.00,WUHU216HW,2013-05-15 07:05:00,
2013-05-15 00:10:00,52.7,47.4,29.87,SSE,158,3.4,4.5,82,0.00,,,0.00,WUHU216HW,2013-05-15 07:10:00,
2013-05-15 00:30:00,52.6,47.3,29.87,SSW,203,2.7,2.7,82,0.00,,,0.00,WUHU216HW,2013-05-15 07:30:00,
2013-05-15 00:35:00,52.6,47.3,29.87,SSE,158,1.8,2.7,82,0.00,,,0.00,WUHU216HW,2013-05-15 07:35:00,
2013-05-15 00:40:00,52.6,47.3,29.87,SSE,158,1.8,1.8,82,0.00,,,0.00,WUHU216HW,2013-05-15 07:40:00,
2013-05-15 01:00:00,52.2,46.9,29.87,SSW,203,0.9,0.9,82,0.00,,,0.00,WUHU216HW,2013-05-15 08:00:00,
2013-05-15 01:05:00,52.0,46.7,29.87,SE,135,1.8,2.0,82,0.00,,,0.00,WUHU216HW,2013-05-15 08:05:00,
2013-05-15 01:10:00,52.0,46.7,29.87,SE,135,1.8,2.0,82,0.00,,,0.00,WUHU216HW,2013-05-15 08:10:00,
2013-05-15 01:30:00,51.5,46.8,29.87,SE,135,1.6,1.6,84,0.00,,,0.00,WUHU216HW,2013-05-15 08:30:00,
2013-05-15 01:35:00,51.5,46.8,29.87,SE,135,1.6,1.6,84,0.00,,,0.00,WUHU216HW,2013-05-15 08:35:00,
2013-05-15 01:40:00,51.5,46.8,29.87,SE,135,1.6,1.6,84,0.00,,,0.00,WUHU216HW,2013-05-15 08:40:00,
2013-05-15 02:00:00,50.9,46.3,29.86,SE,135,3.8,3.8,84,0.00,,,0.00,WUHU216HW,2013-05-15 09:00:00,
2013-05-15 02:05:00,50.9,46.3,29.86,SE,135,3.4,3.8,84,0.00,,,0.00,WUHU216HW,2013-05-15 09:05:00,
2013-05-15 02:10:00,50.9,46.3,29.86,SE,135,3.4,3.4,84,0.00,,,0.00,WUHU216HW,2013-05-15 09:10:00,
2013-05-15 02:30:00,52.6,47.5,29.85,SSE,158,2.5,2.5,83,0.00,,,0.00,WUHU216HW,2013-05-15 09:30:00,
2013-05-15 02:35:00,52.6,47.5,29.85,SSE,158,4.7,4.7,83,0.00,,,0.00,WUHU216HW,2013-05-15 09:35:00,
2013-05-15 02:40:00,52.6,47.5,29.85,SSE,158,4.7,4.7,83,0.00,,,0.00,WUHU216HW,2013-05-15 09:40:00,
2013-05-15 03:00:00,53.6,48.0,29.85,ESE,113,2.0,2.0,81,0.00,,,0.00,WUHU216HW,2013-05-15 10:00:00,
2013-05-15 03:05:00,53.6,48.0,29.85,SE,135,2.7,2.7,81,0.00,,,0.00,WUHU216HW,2013-05-15 10:05:00,
2013-05-15 03:10:00,53.6,48.0,29.85,SE,135,2.7,2.7,81,0.00,,,0.00,WUHU216HW,2013-05-15 10:10:00,
2013-05-15 03:30:00,53.5,47.5,29.85,SSE,158,2.0,2.0,80,0.00,,,0.00,WUHU216HW,2013-05-15 10:30:00,
2013-05-15 03:35:00,53.5,47.5,29.85,SSE,158,2.2,2.2,80,0.00,,,0.00,WUHU216HW,2013-05-15 10:35:00,
2013-05-15 03:40:00,53.5,47.5,29.85,SSE,158,2.2,2.2,80,0.00,,,0.00,WUHU216HW,2013-05-15 10:40:00,
2013-05-15 04:00:00,51.7,46.0,29.85,SSE,158,2.0,2.0,81,0.00,,,0.00,WUHU216HW,2013-05-15 11:00:00,
2013-05-15 04:05:00,51.7,46.0,29.85,SE,135,2.0,2.0,81,0.00,,,0.00,WUHU216HW,2013-05-15 11:05:00,
2013-05-15 04:30:00,51.1,46.1,29.85,SSE,158,2.7,2.7,83,0.00,,,0.00,WUHU216HW,2013-05-15 11:30:00,
2013-05-15 04:35:00,51.1,46.5,29.85,SSE,158,2.7,2.7,84,0.00,,,0.00,WUHU216HW,2013-05-15 11:35:00,
2013-05-15 04:40:00,51.1,46.5,29.85,SSE,158,2.7,2.7,84,0.00,,,0.00,WUHU216HW,2013-05-15 11:40:00,
2013-05-15 05:00:00,54.4,48.3,29.85,South,180,1.6,1.6,80,0.00,,,0.00,WUHU216HW,2013-05-15 12:00:00,
2013-05-15 05:05:00,54.4,48.3,29.85,SSE,158,1.1,1.6,80,0.00,,,0.00,WUHU216HW,2013-05-15 12:05:00,
2013-05-15 05:10:00,54.4,48.3,29.85,SSE,158,1.1,1.6,80,0.00,,,0.00,WUHU216HW,2013-05-15 12:10:00,
2013-05-15 05:30:00,52.7,46.8,29.85,SSE,158,1.6,1.6,80,0.00,,,0.00,WUHU216HW,2013-05-15 12:30:00,
2013-05-15 05:35:00,52.7,46.8,29.85,SSE,158,2.2,2.2,80,0.00,,,0.00,WUHU216HW,2013-05-15 12:35:00,
2013-05-15 05:40:00,52.7,46.8,29.85,SSE,158,2.2,2.2,80,0.00,,,0.00,WUHU216HW,2013-05-15 12:40:00,
2013-05-15 06:00:00,52.6,46.6,29.86,SSE,158,1.6,1.6,80,0.00,,,0.00,WUHU216HW,2013-05-15 13:00:00,
2013-05-15 06:05:00,52.6,46.6,29.86,SSE,158,1.8,1.8,80,0.00,,,0.00,WUHU216HW,2013-05-15 13:05:00,
2013-05-15 06:30:00,51.5,46.2,29.87,ESE,113,2.5,2.5,82,0.00,,,0.00,WUHU216HW,2013-05-15 13:30:00,
2013-05-15 06:35:00,51.5,46.2,29.87,SE,135,2.2,2.5,82,0.00,,,0.00,WUHU216HW,2013-05-15 13:35:00,
2013-05-15 07:00:00,52.0,47.4,29.87,SSE,158,4.0,4.0,84,0.00,,,0.00,WUHU216HW,2013-05-15 14:00:00,
2013-05-15 07:05:00,52.0,47.4,29.87,SE,135,2.5,4.0,84,0.00,,,0.00,WUHU216HW,2013-05-15 14:05:00,
2013-05-15 07:10:00,52.0,47.4,29.87,SE,135,2.5,4.0,84,0.00,,,0.00,WUHU216HW,2013-05-15 14:10:00,
2013-05-15 07:30:00,53.6,49.2,29.87,SE,135,2.5,2.5,85,0.00,,,0.00,WUHU216HW,2013-05-15 14:30:00,
2013-05-15 07:35:00,53.6,49.2,29.87,SE,135,2.5,2.5,85,0.00,,,0.00,WUHU216HW,2013-05-15 14:35:00,
2013-05-15 07:40:00,53.6,49.2,29.87,SE,135,2.5,2.5,85,0.00,,,0.00,WUHU216HW,2013-05-15 14:40:00,
2013-05-15 08:00:00,62.5,54.4,29.87,SW,225,1.3,1.3,75,0.00,,,0.00,WUHU216HW,2013-05-15 15:00:00,
2013-05-15 08:05:00,62.6,54.5,29.87,SW,225,0.4,1.3,75,0.00,,,0.00,WUHU216HW,2013-05-15 15:05:00,
2013-05-15 08:10:00,62.6,54.5,29.87,SW,225,0.4,0.4,75,0.00,,,0.00,WUHU216HW,2013-05-15 15:10:00,
2013-05-15 08:30:00,67.0,54.8,29.88,SSW,203,2.2,2.2,65,0.00,,,0.00,WUHU216HW,2013-05-15 15:30:00,
2013-05-15 08:35:00,67.0,54.8,29.88,South,180,3.4,3.4,65,0.00,,,0.00,WUHU216HW,2013-05-15 15:35:00,
2013-05-15 08:40:00,67.0,54.8,29.88,South,180,3.4,3.4,65,0.00,,,0.00,WUHU216HW,2013-05-15 15:40:00,
2013-05-15 09:00:00,70.0,55.1,29.88,WSW,248,2.5,2.5,59,0.00,,,0.00,WUHU216HW,2013-05-15 16:00:00,
2013-05-15 09:05:00,70.0,55.1,29.88,West,270,2.2,3.8,59,0.00,,,0.00,WUHU216HW,2013-05-15 16:05:00,
2013-05-15 09:10:00,70.0,55.1,29.88,West,270,2.2,3.8,59,0.00,,,0.00,WUHU216HW,2013-05-15 16:10:00,
2013-05-15 09:30:00,72.2,55.0,29.89,South,180,1.3,1.3,55,0.00,,,0.00,WUHU216HW,2013-05-15 16:30:00,
2013-05-15 09:35:00,72.2,55.0,29.89,SW,225,3.8,3.8,55,0.00,,,0.00,WUHU216HW,2013-05-15 16:35:00,
2013-05-15 10:00:00,72.0,54.4,29.89,SSE,158,1.1,1.1,54,0.00,,,0.00,WUHU216HW,2013-05-15 17:00:00,
2013-05-15 10:05:00,72.0,54.4,29.89,SSE,158,0.7,1.1,54,0.00,,,0.00,WUHU216HW,2013-05-15 17:05:00,
2013-05-15 10:10:00,72.0,54.4,29.89,SSE,158,0.7,1.1,54,0.00,,,0.00,WUHU216HW,2013-05-15 17:10:00,
2013-05-15 10:30:00,72.0,51.8,29.89,West,270,5.1,5.1,49,0.00,,,0.00,WUHU216HW,2013-05-15 17:30:00,
2013-05-15 10:36:00,72.0,52.4,29.89,West,270,5.1,5.1,50,0.00,,,0.00,WUHU216HW,2013-05-15 17:36:00,
2013-05-15 11:00:00,71.8,52.2,29.89,SW,225,7.2,7.2,50,0.00,,,0.00,WUHU216HW,2013-05-15 18:00:00,
2013-05-15 11:05:00,71.8,52.2,29.89,WNW,293,7.6,7.6,50,0.00,,,0.00,WUHU216HW,2013-05-15 18:05:00,
2013-05-15 11:30:00,70.7,51.2,29.90,West,270,1.8,1.8,50,0.00,,,0.00,WUHU216HW,2013-05-15 18:30:00,
2013-05-15 11:35:00,70.7,51.2,29.90,SW,225,2.5,2.5,50,0.00,,,0.00,WUHU216HW,2013-05-15 18:35:00,
2013-05-15 12:00:00,68.8,50.4,29.90,SW,225,6.9,6.9,52,0.00,,,0.00,WUHU216HW,2013-05-15 19:00:00,
2013-05-15 12:05:00,68.8,50.4,29.90,SW,225,4.7,6.9,52,0.00,,,0.00,WUHU216HW,2013-05-15 19:05:00,
2013-05-15 12:10:00,68.8,50.4,29.90,SW,225,4.7,4.7,52,0.00,,,0.00,WUHU216HW,2013-05-15 19:10:00,
2013-05-15 12:30:00,69.7,50.8,29.89,WSW,248,6.7,6.7,51,0.00,,,0.00,WUHU216HW,2013-05-15 19:30:00,
2013-05-15 12:35:00,69.7,50.8,29.89,WSW,248,6.5,6.7,51,0.00,,,0.00,WUHU216HW,2013-05-15 19:35:00,
2013-05-15 13:00:00,68.9,51.1,29.89,West,270,7.6,7.6,53,0.00,,,0.00,WUHU216HW,2013-05-15 20:00:00,
2013-05-15 13:05:00,68.9,51.1,29.89,West,270,6.5,7.6,53,0.00,,,0.00,WUHU216HW,2013-05-15 20:05:00,
2013-05-15 13:10:00,68.9,51.1,29.89,West,270,6.5,7.6,53,0.00,,,0.00,WUHU216HW,2013-05-15 20:10:00,
2013-05-15 13:30:00,68.9,51.6,29.90,NNW,338,9.2,9.2,54,0.00,,,0.00,WUHU216HW,2013-05-15 20:30:00,
2013-05-15 13:35:00,68.9,51.6,29.90,WSW,248,12.1,12.1,54,0.00,,,0.00,WUHU216HW,2013-05-15 20:35:00,
2013-05-15 14:00:00,69.5,51.6,29.89,WNW,293,6.9,6.9,53,0.00,,,0.00,WUHU216HW,2013-05-15 21:00:00,
2013-05-15 14:05:00,69.5,51.6,29.89,WNW,293,5.6,6.9,53,0.00,,,0.00,WUHU216HW,2013-05-15 21:05:00,
2013-05-15 14:10:00,69.5,51.6,29.89,WNW,293,5.6,5.6,53,0.00,,,0.00,WUHU216HW,2013-05-15 21:10:00,
2013-05-15 14:30:00,69.5,51.1,29.89,West,270,12.5,12.5,52,0.00,,,0.00,WUHU216HW,2013-05-15 21:30:00,
2013-05-15 14:35:00,69.5,51.1,29.89,WSW,248,7.6,12.5,52,0.00,,,0.00,WUHU216HW,2013-05-15 21:35:00,
2013-05-15 14:40:00,69.5,51.1,29.89,WSW,248,7.6,7.6,52,0.00,,,0.00,WUHU216HW,2013-05-15 21:40:00,
2013-05-15 15:00:00,68.8,51.9,29.89,WNW,293,12.1,12.1,55,0.00,,,0.00,WUHU216HW,2013-05-15 22:00:00,
2013-05-15 15:05:00,68.8,51.4,29.89,West,270,10.7,12.1,54,0.00,,,0.00,WUHU216HW,2013-05-15 22:05:00,
2013-05-15 15:10:00,68.8,51.4,29.89,West,270,10.7,12.1,54,0.00,,,0.00,WUHU216HW,2013-05-15 22:10:00,
2013-05-15 15:30:00,67.5,51.7,29.88,WSW,248,11.9,11.9,57,0.00,,,0.00,WUHU216HW,2013-05-15 22:30:00,
2013-05-15 15:35:00,67.5,51.7,29.89,WSW,248,9.8,11.9,57,0.00,,,0.00,WUHU216HW,2013-05-15 22:35:00,
2013-05-15 15:40:00,67.5,51.7,29.89,WSW,248,9.8,11.9,57,0.00,,,0.00,WUHU216HW,2013-05-15 22:40:00,
2013-05-15 16:00:00,66.6,51.8,29.88,West,270,4.7,4.7,59,0.00,,,0.00,WUHU216HW,2013-05-15 23:00:00,
2013-05-15 16:05:00,66.6,51.8,29.88,West,270,4.7,4.7,59,0.00,,,0.00,WUHU216HW,2013-05-15 23:05:00,
2013-05-15 16:30:00,66.6,52.7,29.87,West,270,11.0,11.0,61,0.00,,,0.00,WUHU216HW,2013-05-15 23:30:00,
2013-05-15 16:35:00,66.4,52.2,29.87,West,270,8.3,11.0,60,0.00,,,0.00,WUHU216HW,2013-05-15 23:35:00,
2013-05-15 16:40:00,66.4,52.2,29.87,West,270,8.3,8.3,60,0.00,,,0.00,WUHU216HW,2013-05-15 23:40:00,
2013-05-15 17:00:00,65.7,52.3,29.88,WSW,248,7.2,7.2,62,0.00,,,0.00,WUHU216HW,2013-05-16 00:00:00,
2013-05-15 17:05:00,65.7,52.3,29.88,WNW,293,6.7,7.2,62,0.00,,,0.00,WUHU216HW,2013-05-16 00:05:00,
2013-05-15 17:30:00,65.0,52.5,29.87,SSE,158,1.6,1.6,64,0.00,,,0.00,WUHU216HW,2013-05-16 00:30:00,
2013-05-15 17:35:00,65.0,52.5,29.87,SW,225,1.8,1.8,64,0.00,,,0.00,WUHU216HW,2013-05-16 00:35:00,
2013-05-15 17:40:00,65.0,52.5,29.87,SW,225,1.8,1.8,64,0.00,,,0.00,WUHU216HW,2013-05-16 00:40:00,
2013-05-15 18:00:00,64.1,52.0,29.87,SSW,203,3.8,3.8,65,0.00,,,0.00,WUHU216HW,2013-05-16 01:00:00,
2013-05-15 18:05:00,64.1,52.0,29.87,WSW,248,2.7,3.8,65,0.00,,,0.00,WUHU216HW,2013-05-16 01:05:00,
2013-05-15 18:30:00,63.2,51.6,29.86,SSW,203,2.5,2.5,66,0.00,,,0.00,WUHU216HW,2013-05-16 01:30:00,
2013-05-15 18:35:00,63.4,51.8,29.86,SSW,203,2.5,2.5,66,0.00,,,0.00,WUHU216HW,2013-05-16 01:35:00,
2013-05-15 18:40:00,63.4,51.8,29.86,SSW,203,2.5,2.5,66,0.00,,,0.00,WUHU216HW,2013-05-16 01:40:00,
2013-05-15 19:00:00,64.3,52.2,29.85,SW,225,5.6,5.6,65,0.00,,,0.00,WUHU216HW,2013-05-16 02:00:00,
2013-05-15 19:05:00,64.3,52.2,29.85,SW,225,5.6,5.6,65,0.00,,,0.00,WUHU216HW,2013-05-16 02:05:00,
2013-05-15 19:30:00,63.5,51.6,29.86,SW,225,3.8,3.8,65,0.00,,,0.00,WUHU216HW,2013-05-16 02:30:00,
2013-05-15 19:35:00,63.5,51.9,29.86,SW,225,1.1,3.8,66,0.00,,,0.00,WUHU216HW,2013-05-16 02:35:00,
2013-05-15 20:00:00,61.7,50.7,29.86,SSW,203,1.3,1.3,67,0.00,,,0.00,WUHU216HW,2013-05-16 03:00:00,
2013-05-15 20:06:00,61.7,50.7,29.86,SW,225,4.7,4.7,67,0.00,,,0.00,WUHU216HW,2013-05-16 03:06:00,
2013-05-15 20:30:00,61.4,51.2,29.86,SSW,203,5.4,5.4,69,0.00,,,0.00,WUHU216HW,2013-05-16 03:30:00,
2013-05-15 20:35:00,61.4,51.2,29.86,SSW,203,4.7,5.4,69,0.00,,,0.00,WUHU216HW,2013-05-16 03:35:00,
2013-05-15 20:40:00,61.4,51.2,29.86,SSW,203,4.7,4.7,69,0.00,,,0.00,WUHU216HW,2013-05-16 03:40:00,
2013-05-15 21:00:00,60.1,50.0,29.86,SSE,158,0.9,0.9,69,0.00,,,0.00,WUHU216HW,2013-05-16 04:00:00,
2013-05-15 21:01:00,60.1,50.4,29.86,South,180,3.8,3.8,70,0.00,,,0.00,WUHU216HW,2013-05-16 04:01:00,
2013-05-15 21:06:00,60.1,50.4,29.86,South,180,3.8,3.8,70,0.00,,,0.00,WUHU216HW,2013-05-16 04:06:00,
2013-05-15 21:30:00,59.4,50.0,29.86,South,180,5.6,5.6,71,0.00,,,0.00,WUHU216HW,2013-05-16 04:30:00,
2013-05-15 21:35:00,59.4,50.0,29.86,South,180,5.6,5.6,71,0.00,,,0.00,WUHU216HW,2013-05-16 04:35:00,
2013-05-15 21:40:00,59.4,50.0,29.86,South,180,5.6,5.6,71,0.00,,,0.00,WUHU216HW,2013-05-16 04:40:00,
2013-05-15 22:00:00,58.3,49.7,29.86,SE,135,2.5,2.5,73,0.00,,,0.00,WUHU216HW,2013-05-16 05:00:00,
2013-05-15 22:05:00,58.3,49.7,29.86,SE,135,2.5,2.5,73,0.00,,,0.00,WUHU216HW,2013-05-16 05:05:00,
2013-05-15 22:10:00,58.3,49.7,29.86,SE,135,2.5,2.5,73,0.00,,,0.00,WUHU216HW,2013-05-16 05:10:00,
2013-05-15 22:30:00,58.1,49.9,29.87,SE,135,1.6,1.6,74,0.00,,,0.00,WUHU216HW,2013-05-16 05:30:00,
2013-05-15 22:35:00,58.1,49.9,29.87,SE,135,1.8,1.8,74,0.00,,,0.00,WUHU216HW,2013-05-16 05:35:00,
2013-05-15 22:40:00,58.1,49.9,29.87,SE,135,1.8,1.8,74,0.00,,,0.00,WUHU216HW,2013-05-16 05:40:00,
2013-05-15 23:00:00,58.5,50.2,29.86,SE,135,0.2,0.2,74,0.00,,,0.00,WUHU216HW,2013-05-16 06:00:00,
2013-05-15 23:05:00,58.5,50.2,29.86,SSW,203,0.0,1.1,74,0.00,,,0.00,WUHU216HW,2013-05-16 06:05:00,
2013-05-15 23:10:00,58.5,50.2,29.86,SSW,203,0.0,1.1,74,0.00,,,0.00,WUHU216HW,2013-05-16 06:10:00,
2013-05-15 23:30:00,57.2,49.3,29.86,South,180,1.3,1.3,75,0.00,,,0.00,WUHU216HW,2013-05-16 06:30:00,
2013-05-15 23:35:00,57.2,49.3,29.86,SE,135,2.0,2.0,75,0.00,,,0.00,WUHU216HW,2013-05-16 06:35:00,
2013-05-15 23:40:00,57.2,49.3,29.86,SE,135,2.0,2.0,75,0.00,,,0.00,WUHU216HW,2013-05-16 06:40:00,